Theta_e
330 328 328 329 329 328 327 326 327 327 328 329 328 329 328 327 327 327 328 327 326 327 327 327 327 327 327 326 325 325 325 325 324 323 323 322 321 321 321 321 321 321 320 319 319 319 319 319 319 319 319 319 319 319 318 319 319 320 321 322 322 322 322 321 321 324 328 329 330 329 328 329 329 329 329 328 329 330 330 329 327 327 327 328 327
330 329 328 328 328 328 328 327 328 328 329 329 329 329 329 328 328 327 327 326 326 326 326 326 325 325 326 326 326 326 325 324 324 323 321 320 320 321 321 321 321 321 320 320 319 318 319 319 319 319 318 318 318 318 318 318 319 319 320 321 321 322 322 319 321 326 328 328 330 330 329 329 329 330 330 329 329 330 330 330 329 328 328 328 328
331 330 327 328 328 328 329 329 329 328 328 329 329 329 330 329 327 326 326 324 324 324 324 325 324 322 323 323 323 325 324 322 322 321 319 319 320 321 321 321 322 321 320 320 319 318 318 318 319 318 318 318 318 318 318 318 319 319 320 321 321 322 322 319 320 325 327 327 327 328 328 328 329 330 330 329 329 329 329 329 329 329 329 328 329
330 330 328 327 328 328 328 329 329 329 329 329 328 330 330 328 327 326 324 323 323 323 322 323 322 321 322 321 319 321 322 320 321 323 321 321 321 321 322 321 321 321 320 320 320 319 318 318 318 318 318 318 318 318 318 318 319 319 319 320 320 321 322 321 321 323 325 327 327 327 327 327 328 328 328 329 329 329 329 328 327 328 329 329 329
329 330 330 328 329 328 328 328 329 329 329 329 328 330 330 328 327 326 324 324 323 321 322 322 321 322 323 322 321 322 323 322 324 325 323 322 321 320 322 322 321 322 321 320 320 319 318 318 318 318 318 318 318 318 318 318 318 318 318 319 319 320 320 321 321 322 324 326 327 328 327 327 328 327 327 328 327 328 327 327 327 327 327 328 328
329 329 330 330 329 329 327 327 329 329 329 329 329 330 330 328 327 326 324 324 323 322 323 323 322 324 324 325 325 325 326 325 324 323 322 321 320 320 322 323 322 321 322 321 320 319 318 318 318 318 318 318 318 318 317 318 318 318 318 318 318 319 320 320 320 321 321 323 325 326 327 327 327 326 327 327 326 327 326 326 326 326 326 327 327
330 329 329 330 330 330 328 328 329 330 330 329 330 331 329 327 326 325 324 323 323 323 324 324 324 325 325 324 324 324 325 325 322 321 322 321 320 320 321 322 322 321 322 322 320 320 319 318 318 318 318 317 317 317 317 317 318 317 317 318 318 318 319 319 319 320 320 321 322 323 324 324 325 325 325 325 325 326 325 325 325 325 325 326 326
330 330 331 331 331 332 330 329 330 331 331 329 330 330 328 327 327 326 325 324 324 324 324 324 324 325 324 324 324 323 324 324 322 321 322 322 321 322 322 322 322 321 322 322 321 320 319 319 318 318 318 317 317 317 317 317 317 317 317 317 318 317 318 318 319 319 319 319 320 321 321 322 322 323 323 323 323 323 324 324 324 324 325 325 325
329 331 332 331 331 332 330 330 330 331 330 330 330 329 327 327 328 327 327 326 326 325 324 325 324 325 325 325 324 324 324 323 323 322 323 323 322 322 323 322 322 323 323 322 321 321 319 319 319 318 318 318 317 317 317 317 316 316 317 317 317 317 317 317 318 318 318 319 319 319 320 320 320 320 320 321 321 321 321 322 322 322 324 324 324
329 331 332 330 330 330 327 327 329 330 330 329 329 328 327 328 328 328 328 327 327 326 325 325 326 325 325 325 324 324 325 323 323 322 322 323 322 323 323 321 321 322 324 323 322 321 319 319 319 318 318 318 317 317 317 317 317 316 316 316 316 317 317 317 317 318 318 318 318 318 319 319 319 320 319 319 320 320 320 321 322 321 322 324 323
330 332 333 329 327 327 325 325 327 330 331 330 330 330 329 329 329 329 328 327 328 328 327 326 326 326 326 326 326 325 324 323 322 322 323 323 322 322 322 320 321 322 323 324 322 321 319 319 319 318 319 318 318 318 317 317 317 317 316 316 316 316 316 317 317 317 317 317 318 318 318 318 318 319 318 318 319 320 320 320 321 321 321 322 322
328 329 332 331 328 328 329 329 328 329 331 331 331 332 331 330 328 328 328 327 327 327 327 326 327 327 327 327 327 327 325 324 322 322 323 323 323 322 322 322 322 322 323 324 324 322 320 319 319 318 319 318 318 318 317 317 317 317 317 316 316 316 316 316 316 316 316 317 317 317 317 318 317 318 317 318 318 319 320 320 321 321 321 321 320
328 328 330 333 333 332 333 333 332 331 332 331 330 329 329 329 327 326 328 328 327 327 327 327 327 327 327 327 327 327 326 325 323 322 323 324 323 323 322 322 322 322 323 324 324 323 321 320 320 319 319 319 318 318 318 317 317 317 317 317 316 316 317 316 316 316 316 316 317 317 317 317 317 317 317 317 317 318 319 319 320 321 321 321 320
327 328 330 333 333 333 331 331 332 333 332 330 328 327 326 327 325 325 327 328 327 326 327 327 326 326 327 327 326 327 326 324 323 323 323 324 324 323 322 321 322 322 322 323 323 323 322 321 320 319 318 318 318 318 318 318 318 317 317 317 317 317 317 317 317 316 316 316 317 316 317 317 317 317 317 317 317 317 318 319 319 320 321 321 321
326 328 330 332 332 331 329 329 330 331 331 330 329 327 328 328 327 326 328 328 326 326 326 326 326 326 326 325 325 325 324 322 322 322 322 323 323 323 322 322 322 322 322 322 321 322 323 323 321 319 318 317 317 318 318 318 318 318 318 318 318 318 318 318 317 317 317 317 317 317 317 317 317 317 317 317 317 317 318 318 319 319 320 320 321
326 328 331 332 331 328 326 327 328 329 329 329 329 329 330 330 329 328 328 327 325 325 324 324 323 324 324 323 323 323 322 322 322 322 322 322 322 322 322 322 322 322 322 321 321 322 324 324 323 321 320 318 317 317 318 319 319 319 319 318 318 318 318 318 318 318 318 318 317 317 317 317 317 317 317 317 317 317 318 318 318 318 318 319 320
326 328 330 331 330 327 325 326 327 328 328 329 329 329 328 329 329 330 330 328 326 324 323 323 323 323 323 322 322 322 322 322 323 322 322 323 322 321 321 322 322 322 323 322 322 322 323 325 325 324 322 319 318 317 318 319 319 319 319 319 318 318 318 318 318 318 318 318 318 318 317 317 317 317 317 317 317 317 317 317 317 317 317 318 319
328 328 329 330 329 327 325 325 326 327 328 329 327 325 324 325 326 328 330 330 329 327 324 323 323 324 324 324 324 324 323 323 323 323 323 323 323 322 322 322 322 323 323 324 322 322 324 326 327 327 325 322 319 317 317 318 319 319 319 319 319 319 319 319 319 318 318 318 318 318 318 317 317 316 317 317 317 317 317 317 317 317 317 318 319
329 328 328 328 328 327 326 326 326 326 327 328 326 323 322 323 323 324 326 327 328 326 325 324 323 324 324 324 324 324 323 323 322 322 321 322 322 322 321 321 321 322 323 324 323 323 325 327 328 328 327 325 322 319 317 318 319 319 319 319 319 319 319 319 319 319 319 318 318 318 318 318 317 317 316 317 317 317 317 316 316 317 317 318 318
329 328 327 328 327 327 327 327 327 327 326 327 325 324 323 323 322 323 323 323 324 323 323 324 324 324 324 324 324 324 324 324 323 322 321 321 322 321 321 321 321 321 322 322 322 322 323 325 327 328 327 326 325 322 319 318 318 318 319 320 319 319 319 319 319 319 319 319 319 319 318 318 318 317 317 316 316 317 317 316 316 316 317 317 318
328 327 327 327 328 327 327 326 326 326 326 325 323 323 325 324 324 325 323 324 326 325 325 326 325 323 323 324 325 325 324 324 324 322 321 322 322 321 321 322 322 322 321 321 323 323 323 323 325 327 327 327 325 324 323 320 319 318 319 319 320 319 319 319 319 319 319 319 319 319 319 319 319 318 318 317 316 316 317 317 316 316 317 317 317
328 328 328 328 327 327 327 327 326 326 326 326 323 324 325 326 326 327 325 325 327 327 328 328 326 323 322 323 325 325 324 324 324 323 322 322 323 323 322 322 322 323 323 322 323 324 324 323 324 325 326 326 325 325 324 323 321 319 320 320 320 320 319 319 319 319 319 319 320 320 319 319 319 318 318 317 317 316 316 317 317 316 317 316 317
325 326 328 328 327 327 326 326 326 325 326 325 323 324 324 324 326 327 326 325 326 327 327 328 326 322 322 322 323 324 324 323 323 323 322 324 325 326 325 324 324 325 325 324 323 324 324 324 324 324 324 324 325 325 324 324 323 321 320 321 320 320 320 319 319 319 319 319 319 320 319 319 319 319 318 318 318 317 316 316 316 316 316 316 316
322 323 323 323 325 326 325 325 325 325 325 324 323 324 324 323 324 325 324 324 324 325 326 326 324 323 323 323 322 323 323 322 322 322 323 325 326 327 327 326 325 325 326 325 323 322 323 324 324 323 323 323 324 324 324 324 324 322 321 321 321 321 320 320 320 319 319 319 319 319 320 319 319 319 319 318 318 318 317 316 316 316 316 316 316
324 324 322 320 322 325 325 325 325 325 325 325 324 325 325 323 323 323 323 323 323 323 324 324 324 323 323 323 323 323 323 323 321 321 322 324 327 328 327 327 325 325 326 325 323 321 321 323 324 324 324 324 323 325 325 325 324 322 321 321 320 321 321 320 320 320 320 319 319 319 319 319 320 320 319 318 318 318 318 317 316 316 316 315 315
327 326 324 322 323 325 325 325 325 325 325 325 325 325 325 324 323 322 322 322 321 319 320 321 321 322 323 323 323 323 323 323 323 322 322 325 327 327 327 327 326 325 326 325 323 321 320 322 324 325 325 324 324 325 325 325 325 324 323 322 321 320 321 321 321 320 320 319 319 319 319 319 319 320 319 318 318 318 318 318 317 317 316 316 315
328 328 326 326 325 325 325 326 326 326 325 325 326 325 326 325 323 322 322 322 320 317 317 318 318 319 320 320 322 322 323 324 324 323 323 324 326 326 327 327 326 326 326 325 324 323 322 321 322 324 324 324 323 323 323 323 323 324 324 323 322 321 321 321 321 321 321 320 320 320 319 319 320 319 319 319 317 317 318 318 318 317 317 317 316
328 327 327 327 325 326 327 326 326 325 325 325 325 326 325 325 324 323 323 323 321 319 318 317 318 318 318 319 319 320 321 322 322 323 322 322 323 324 325 326 325 325 325 325 325 326 325 323 322 321 322 322 321 320 320 320 321 322 322 322 322 321 321 321 321 321 321 321 321 321 320 320 320 319 319 318 317 317 317 318 318 318 317 317 317
327 327 326 326 326 327 327 326 325 323 324 324 324 326 326 324 323 324 323 323 323 321 320 320 319 318 318 319 319 319 319 319 319 320 320 320 321 322 323 323 324 324 324 324 325 326 326 325 324 322 321 320 319 319 320 319 319 320 320 320 320 320 320 321 321 321 321 321 321 321 320 319 319 318 318 317 316 316 316 317 317 318 318 317 317
327 327 327 327 328 328 326 324 323 323 323 324 324 325 325 324 323 324 323 323 323 323 323 322 321 320 320 321 322 321 320 319 319 319 319 319 320 322 321 321 323 323 323 324 324 325 326 325 325 325 323 320 318 319 320 319 319 319 319 319 319 319 319 320 320 321 321 321 320 320 319 318 318 317 317 316 316 316 316 316 316 316 317 317 317
327 327 327 327 329 329 326 323 324 323 324 324 323 323 324 323 323 323 323 323 322 323 323 322 323 323 324 325 325 323 322 323 322 321 321 320 321 322 322 321 323 322 322 322 323 324 325 324 323 324 324 322 319 318 319 319 319 320 320 319 319 319 319 320 320 321 321 321 321 321 321 319 317 317 317 316 316 316 316 316 316 316 315 314 314
327 327 327 327 328 328 326 324 324 323 322 323 322 322 322 323 323 323 323 322 322 322 323 323 323 324 325 326 326 326 326 326 324 324 324 324 324 324 324 323 322 321 320 320 321 321 322 322 322 322 323 322 320 319 319 319 320 320 320 320 320 320 320 320 321 322 322 322 322 322 322 321 319 318 318 317 316 316 316 317 317 317 316 314 313
327 326 327 327 326 325 324 323 322 322 322 322 321 321 322 322 323 323 323 322 322 322 322 322 323 323 324 324 325 324 325 325 324 324 324 324 324 325 325 324 322 320 320 320 320 320 321 321 322 321 321 321 321 320 321 320 320 320 320 320 320 321 321 321 322 323 324 324 323 323 323 322 320 319 318 318 317 317 317 317 317 317 317 317 316
324 322 323 323 322 322 321 322 321 321 322 321 320 320 321 322 322 323 322 322 322 322 322 322 323 323 323 323 323 324 323 323 323 323 323 323 324 324 324 324 323 322 321 320 320 320 320 320 321 321 321 321 321 320 321 320 321 320 320 320 320 321 321 321 321 322 323 323 323 323 323 322 322 321 320 319 318 318 318 317 317 317 317 317 317
322 321 321 321 321 321 321 321 321 321 321 321 320 321 321 321 321 321 321 322 322 323 324 323 322 323 324 323 323 322 322 321 321 321 321 321 321 322 322 323 324 323 323 323 322 321 321 321 320 321 321 321 321 320 321 321 321 321 321 320 320 320 321 321 320 321 321 321 321 321 321 321 322 322 321 320 319 318 318 318 318 318 318 318 317
322 321 321 322 321 322 322 321 322 322 321 321 321 321 321 321 321 321 322 323 323 325 325 323 322 324 324 323 323 321 321 320 320 320 320 319 319 320 319 321 322 323 323 323 323 323 323 322 321 321 321 321 321 320 321 321 321 321 321 320 320 321 320 320 320 320 320 320 320 320 319 319 319 320 320 320 320 319 319 318 318 319 319 319 318
321 321 322 322 321 322 321 321 322 321 321 322 322 322 322 323 322 322 324 324 323 323 323 322 321 322 322 322 322 321 320 319 319 319 319 319 319 319 319 319 320 322 323 324 324 324 323 322 322 322 322 321 320 320 321 320 320 321 320 320 320 321 320 321 321 320 321 321 320 320 319 319 319 318 319 319 319 320 320 319 319 319 319 320 319
321 321 322 321 321 321 321 321 322 322 322 323 322 322 322 322 322 322 322 321 320 320 320 319 319 319 319 318 318 318 317 316 316 316 316 318 319 320 320 320 320 320 322 323 324 324 323 323 322 322 323 322 321 320 321 321 321 320 320 319 320 319 320 321 320 321 321 321 321 321 320 319 319 319 319 319 318 319 320 320 319 319 319 319 320
321 322 322 322 322 322 322 323 323 323 322 322 321 321 321 321 320 320 320 319 319 318 318 318 318 317 317 317 316 315 314 313 312 312 312 313 316 319 321 321 321 321 321 323 324 325 324 324 323 323 323 323 322 322 322 322 321 321 320 320 319 319 320 320 320 322 322 321 321 322 322 320 319 319 319 320 319 319 319 319 319 319 319 319 319
322 322 323 323 323 323 322 323 322 322 321 321 320 320 320 320 319 318 318 318 317 317 317 317 316 316 315 314 314 313 314 315 315 315 315 316 318 321 322 321 321 321 321 322 323 323 322 322 322 323 323 323 323 322 323 323 322 321 320 320 319 319 320 320 320 322 322 321 320 321 321 321 320 320 319 319 319 319 319 319 319 319 320 320 319
323 323 323 323 322 322 321 321 320 320 320 319 319 319 318 318 318 317 317 317 316 316 316 315 315 314 314 314 315 316 317 318 318 319 319 319 320 321 321 321 321 321 321 321 321 321 321 321 321 321 321 321 320 321 322 323 323 322 321 319 319 319 320 320 320 321 322 321 321 321 321 321 321 320 320 319 319 319 320 319 319 320 320 319 320
322 322 322 321 321 321 320 319 319 318 317 317 317 317 317 316 316 316 316 315 315 315 315 315 315 316 316 316 317 318 318 318 318 318 318 318 318 318 318 319 319 319 320 320 320 321 322 323 323 323 322 321 321 321 322 322 322 321 319 318 318 319 320 320 320 321 321 322 322 323 323 322 321 321 320 320 320 320 320 319 320 320 320 320 320
321 320 320 320 319 319 318 317 317 316 316 316 316 316 315 315 315 315 315 315 315 316 317 317 317 317 317 317 317 318 317 317 317 317 317 317 317 317 317 317 317 317 318 318 319 319 319 321 322 322 321 319 318 319 320 319 319 319 318 318 319 319 319 320 320 321 321 321 322 323 323 322 322 322 321 320 320 320 320 320 320 320 320 320 320
319 318 318 318 317 317 316 316 316 316 316 315 315 315 314 314 314 314 315 315 316 316 316 317 316 316 316 316 316 316 316 316 316 316 317 317 317 317 317 318 318 317 318 318 317 316 317 318 320 320 320 318 316 316 316 316 316 317 318 318 318 318 317 317 317 318 319 318 319 320 321 320 321 321 319 318 319 319 319 319 320 320 320 320 320
317 316 316 316 316 315 315 315 315 315 315 314 314 314 313 313 313 313 314 314 315 314 314 314 313 313 312 313 313 312 312 313 312 312 315 316 316 317 317 318 318 318 318 318 318 317 316 316 317 317 318 318 317 317 318 316 315 314 314 314 315 315 315 314 314 314 314 314 315 316 316 316 317 316 315 315 314 315 315 316 318 320 321 320 320
316 315 315 315 315 315 315 315 314 313 313 313 313 312 312 311 311 311 312 312 311 311 311 311 310 310 310 309 309 309 309 310 308 307 309 311 312 314 315 315 316 316 315 316 317 317 316 315 316 316 316 315 315 315 316 315 313 312 312 311 311 312 313 312 312 311 311 313 314 315 315 316 315 315 315 314 313 312 312 312 314 317 319 320 321
315 314 316 317 317 316 316 315 313 313 313 313 312 312 311 311 311 311 311 311 310 310 310 310 310 310 309 309 309 308 308 310 308 307 308 309 308 309 311 312 312 311 310 311 313 314 314 314 314 314 314 313 313 313 313 313 312 312 312 312 312 312 312 312 312 312 312 314 315 315 315 315 314 313 313 312 312 313 314 314 314 314 317 319 321
313 314 316 317 317 316 316 315 313 312 312 313 313 312 311 311 311 311 311 311 311 310 311 311 311 310 309 310 310 309 309 310 310 309 310 310 308 307 308 310 310 309 309 310 310 311 311 312 312 312 311 312 313 313 312 312 312 312 312 312 312 312 312 312 312 311 312 312 312 313 312 311 311 313 314 313 313 313 315 316 317 316 316 318 320
313 314 315 315 315 314 314 313 313 313 312 312 312 312 312 312 311 311 311 312 311 312 312 311 311 310 309 310 310 310 310 311 311 310 311 311 309 307 308 309 310 309 309 309 309 309 309 309 310 310 311 312 312 312 312 312 313 312 312 311 311 311 311 311 310 310 310 309 309 309 310 311 313 316 318 318 318 318 319 318 319 318 318 318 319
314 314 314 314 313 313 313 312 312 312 312 312 313 313 313 312 311 311 311 312 312 312 312 311 311 310 309 309 310 309 309 310 310 310 311 311 310 309 309 309 309 308 308 308 307 306 305 305 306 307 309 310 311 312 312 312 312 312 312 311 311 311 311 310 310 310 309 308 308 308 308 308 310 312 315 317 319 320 320 321 321 320 319 319 320
315 315 314 313 312 312 312 312 312 312 312 313 313 312 312 311 311 311 311 311 312 312 311 311 311 310 309 309 309 309 308 308 308 308 310 310 310 310 309 309 308 308 307 307 306 304 303 302 302 303 305 307 309 310 310 310 310 310 310 310 310 309 309 309 308 308 308 308 310 311 310 308 308 308 310 315 318 318 319 320 321 321 320 319 320
Wind_Speed
0 2 3 3 4 5 6 7 7 7 6 5 4 4 4 4 4 3 3 3 3 4 4 3 3 3 3 3 3 3 3 3 5 5 4 5 7 7 9 9 9 11 12 13 13 10 8 8 7 7 8 7 7 7 7 7 7 7 5 5 5 5 5 3 2 2 0 2 2 2 2 3 3 3 3 3 2 2 2 3 3 4 3 3 3
1 1 3 3 3 3 4 6 6 6 6 5 4 4 3 3 3 3 3 3 4 3 4 3 3 3 3 3 3 3 3 3 4 5 6 7 7 7 8 9 8 10 10 12 13 11 9 8 8 8 8 8 8 8 7 7 7 7 6 4 4 5 5 3 3 3 1 2 3 3 2 2 2 3 3 3 2 2 3 3 4 4 4 3 3
3 2 1 2 3 3 3 5 6 7 7 6 5 4 3 3 3 3 3 4 3 3 3 3 3 3 3 3 3 3 3 4 4 5 7 7 7 6 7 8 8 8 10 11 12 11 10 8 7 7 8 8 8 8 8 8 8 8 7 6 5 4 6 5 3 4 2 2 3 4 3 2 2 2 2 2 2 2 3 3 4 4 4 4 3
2 3 3 1 2 3 4 5 5 6 6 6 5 4 3 4 3 3 3 3 3 3 2 2 2 3 3 3 4 3 3 4 5 5 6 7 7 6 7 8 8 7 9 9 10 11 11 9 7 8 8 8 9 9 9 9 8 8 8 7 6 5 5 7 5 3 3 3 3 4 5 4 3 1 1 1 1 2 3 4 4 4 4 4 4
1 2 3 2 1 2 3 5 5 5 6 6 5 4 4 4 4 4 4 3 3 3 2 2 3 2 3 4 4 4 4 4 4 5 6 7 8 8 7 7 7 6 7 8 9 10 11 9 8 8 8 8 8 9 9 9 9 9 8 8 7 5 5 5 6 5 4 4 4 3 3 3 2 1 2 3 2 2 3 4 4 5 5 4 4
1 1 2 2 1 1 2 4 5 6 6 6 6 5 5 4 4 4 4 3 4 3 3 3 3 3 4 4 4 4 4 4 4 5 6 7 7 8 7 6 6 6 6 7 8 9 10 10 8 8 8 8 8 9 9 9 9 9 8 8 7 6 6 4 5 6 5 5 5 5 3 2 4 5 5 5 4 3 2 4 5 5 5 5 4
1 2 3 3 2 1 2 3 5 6 7 7 7 5 5 5 4 4 4 4 4 4 4 4 4 4 5 5 5 5 5 5 6 6 6 6 6 6 6 6 6 6 5 5 7 8 9 9 8 8 8 7 7 8 9 9 9 8 8 8 7 7 6 5 5 5 5 5 5 4 3 3 5 5 5 6 6 4 3 4 5 5 5 5 5
2 3 3 3 2 2 2 4 6 7 8 7 7 6 5 5 5 4 4 4 4 4 5 5 5 5 5 5 6 6 6 6 6 6 5 6 6 6 6 6 6 6 5 4 5 7 8 8 8 7 7 7 7 7 8 8 8 7 7 7 7 7 7 6 6 5 5 5 5 4 4 4 4 4 4 5 5 6 5 4 5 6 5 4 5
3 3 3 3 3 3 2 3 6 8 8 7 7 6 6 5 5 5 4 4 5 5 5 5 5 5 5 5 6 6 6 6 6 6 5 5 6 5 5 6 6 6 5 4 4 5 6 7 7 7 7 7 6 6 7 8 8 7 7 7 7 7 7 7 6 6 5 5 5 4 4 4 4 4 5 4 4 5 5 5 7 8 5 4 5
3 4 4 3 3 2 2 2 6 8 7 7 7 6 5 5 5 5 6 6 6 5 5 5 5 5 5 5 6 6 6 6 6 6 6 5 6 5 5 6 6 5 5 5 4 4 5 6 6 7 7 7 6 6 6 7 7 7 7 7 8 7 6 7 7 6 5 6 6 5 5 4 3 4 5 5 4 4 5 6 7 7 5 5 6
3 4 5 4 2 1 3 2 4 7 7 6 6 5 6 6 5 6 6 6 6 6 6 5 5 5 5 5 5 6 6 6 6 6 6 6 6 6 6 6 6 5 5 5 4 4 4 5 5 5 6 7 7 6 6 7 6 6 7 7 8 8 7 7 8 7 6 6 5 5 5 5 4 4 5 5 5 4 5 6 6 7 5 5 7
2 3 5 4 2 2 3 3 3 6 7 7 6 6 6 6 6 6 6 7 6 6 6 6 6 5 6 6 6 6 6 6 6 6 6 7 6 6 6 6 6 5 5 5 5 4 4 4 4 4 4 5 6 5 5 6 6 6 6 7 7 8 7 7 8 7 7 6 6 6 5 5 4 4 5 5 5 5 6 6 6 7 6 5 6
1 2 4 5 3 3 3 3 3 5 6 6 5 5 6 6 6 6 6 6 6 6 6 6 6 6 6 6 6 6 6 6 6 6 6 7 7 6 6 6 6 6 6 5 5 5 4 3 3 3 3 4 4 4 4 4 4 5 6 6 6 6 6 7 7 7 7 6 6 6 5 5 4 4 5 5 6 6 6 7 7 7 6 5 5
1 2 3 4 4 4 3 3 4 5 5 4 3 3 4 5 6 5 6 6 5 5 5 5 6 6 7 6 6 6 6 6 6 7 7 7 7 7 7 7 7 6 6 6 6 7 5 4 3 3 3 3 3 2 2 3 3 4 4 4 4 5 5 5 5 6 6 6 6 5 5 5 4 4 4 5 6 6 6 7 8 8 6 5 4
1 2 4 5 5 4 3 4 4 5 5 4 3 2 1 2 3 3 5 6 5 5 6 6 6 7 7 6 6 6 6 6 6 6 7 7 7 7 7 7 7 7 7 7 7 7 6 5 5 4 4 3 3 2 1 2 2 2 2 3 4 4 4 4 5 4 4 4 5 5 5 5 5 4 4 4 5 6 5 5 7 8 7 5 3
1 3 5 6 5 3 4 5 5 5 5 4 3 2 2 1 1 1 3 5 5 5 6 6 6 6 6 6 6 6 6 6 7 7 7 8 8 8 8 8 8 8 8 8 9 8 7 6 6 5 5 4 3 3 2 2 3 2 2 3 3 3 4 4 4 4 5 5 5 4 4 4 5 5 4 4 4 5 5 5 6 7 8 7 5
2 3 5 5 4 3 5 5 6 5 4 3 2 1 0 1 1 2 2 3 4 5 5 5 5 4 4 5 5 5 6 7 7 8 8 8 9 9 9 9 9 10 10 9 9 9 8 7 6 6 6 6 5 4 4 4 4 4 3 4 3 3 3 4 4 4 5 5 5 4 4 4 5 5 5 4 3 4 4 5 5 5 6 7 7
3 4 5 5 3 3 5 5 4 4 3 2 2 1 1 1 2 2 2 3 4 4 5 5 4 3 4 4 5 6 7 7 8 8 9 9 9 9 10 10 10 10 11 10 10 10 9 7 7 7 8 8 7 6 6 6 6 5 5 5 5 5 4 4 5 5 5 4 5 5 4 4 5 5 5 5 4 4 4 5 6 5 5 5 6
4 5 5 5 3 3 4 4 3 3 3 2 2 1 1 2 2 2 2 3 4 4 4 4 4 4 4 5 6 7 8 9 9 9 9 9 9 9 10 10 10 11 11 11 11 11 10 8 8 8 9 10 9 9 8 8 7 7 7 6 6 6 5 5 5 5 5 4 5 5 5 4 5 5 5 5 5 4 3 4 5 5 5 5 5
3 4 4 5 4 3 4 5 4 3 3 3 3 2 2 2 2 3 3 3 4 4 4 5 5 5 6 7 8 8 8 9 10 10 9 9 8 9 9 10 10 11 11 11 11 12 11 10 10 9 9 10 11 10 10 10 9 8 8 8 7 7 7 7 7 6 6 6 5 5 5 4 5 5 5 5 5 5 4 4 4 5 5 5 4
3 3 4 4 4 3 4 5 4 4 4 4 4 4 4 4 4 4 5 5 5 5 5 5 6 7 7 8 9 10 10 10 11 11 10 9 9 9 10 10 10 11 11 11 11 12 12 11 11 10 10 11 12 11 11 11 11 10 9 9 9 8 8 8 8 8 8 8 7 6 6 6 5 5 5 5 4 5 6 5 5 5 5 5 5
3 3 4 4 4 3 4 5 4 4 4 5 5 5 6 6 6 7 7 7 7 7 7 7 7 7 8 9 10 11 12 12 12 12 11 10 10 10 11 11 12 13 13 13 12 12 13 12 12 12 11 11 13 12 11 12 13 12 11 11 10 10 10 10 9 9 8 9 9 8 7 7 7 6 6 5 5 5 6 6 6 6 5 5 6
4 4 5 5 5 5 5 5 5 5 5 5 6 6 6 7 7 8 8 9 9 9 8 9 9 9 9 9 10 11 12 12 13 13 12 11 11 11 12 13 13 13 14 15 14 14 14 14 13 13 13 13 13 13 12 13 13 13 13 12 12 11 11 11 10 10 9 9 9 9 8 8 8 8 7 6 6 6 5 6 7 7 6 6 6
6 6 6 6 6 6 6 6 5 5 5 5 5 6 6 6 7 8 9 9 9 10 10 11 12 12 11 11 11 11 12 13 13 13 12 11 12 12 12 12 12 12 13 14 14 14 14 15 15 14 13 14 14 13 13 13 13 14 14 13 13 13 12 12 12 11 11 10 10 10 10 9 9 9 8 7 7 7 6 6 6 7 7 7 6
8 7 8 8 7 7 6 6 5 4 4 5 5 6 7 7 7 8 9 9 10 11 11 12 13 13 13 13 12 12 12 13 12 11 11 11 12 12 12 12 12 11 11 11 12 12 12 13 14 14 13 14 14 13 13 13 13 13 14 14 14 14 14 13 13 13 12 12 12 12 11 10 10 9 8 8 7 8 8 7 7 7 7 7 7
9 9 9 9 9 8 7 6 6 5 5 5 6 7 7 7 8 8 9 9 10 11 12 12 12 13 13 13 13 13 13 14 13 11 10 11 12 12 13 13 12 12 11 11 11 11 11 11 12 12 13 13 13 13 13 13 13 13 14 15 15 15 15 14 14 14 13 13 13 13 13 12 12 11 10 9 8 8 9 9 8 8 8 7 7
10 10 10 10 11 10 9 8 7 7 6 6 7 7 7 7 7 8 9 9 9 9 9 10 10 11 11 12 12 13 13 14 14 13 13 12 12 13 13 13 13 13 13 13 12 12 11 11 10 11 11 11 12 12 13 13 12 13 14 14 15 15 15 15 15 15 14 14 15 14 14 14 13 13 12 10 9 9 9 9 10 10 9 9 8
12 12 12 11 11 11 10 10 9 9 8 8 8 8 9 8 7 8 9 9 10 9 9 9 9 9 9 10 11 12 13 13 14 14 15 14 14 14 14 14 15 15 15 15 14 13 13 13 12 11 11 11 11 11 11 11 11 12 13 13 14 15 15 15 16 15 15 15 15 15 15 15 15 15 14 12 11 10 9 10 10 10 10 10 9
12 13 13 12 11 11 11 11 11 10 10 10 10 10 10 11 10 9 10 10 11 11 11 11 11 11 10 10 11 12 13 13 14 15 15 16 16 16 16 15 16 16 17 17 16 15 15 15 14 13 13 13 13 13 13 11 11 12 13 13 13 14 15 15 15 16 16 16 16 16 16 16 16 17 16 15 14 12 10 10 10 11 11 10 11
9 11 12 12 12 11 12 11 11 11 11 11 12 12 13 14 13 12 11 11 13 13 13 13 13 13 12 12 12 14 14 15 15 15 16 16 16 17 17 17 16 16 17 17 17 17 17 17 17 16 16 17 16 16 15 14 13 14 15 15 15 15 16 16 17 16 16 16 16 16 17 16 16 17 17 16 15 13 12 11 10 11 11 11 11
6 8 10 11 11 11 12 12 12 12 12 12 12 12 13 14 14 13 12 13 14 14 14 14 14 14 14 13 14 15 16 17 18 18 18 18 17 18 19 18 18 18 17 17 18 18 19 19 19 18 18 19 19 18 17 16 16 16 17 18 18 18 18 19 19 19 18 18 17 17 17 17 16 16 17 17 15 15 14 13 11 11 12 13 13
4 5 6 7 8 8 10 10 10 10 9 9 8 8 8 9 10 11 13 15 15 14 14 15 16 15 15 14 15 16 17 18 19 20 20 20 20 20 20 21 21 21 20 19 20 20 20 21 21 21 21 22 23 20 18 17 18 18 19 20 21 21 22 22 21 21 20 19 19 18 18 19 19 17 17 17 17 17 16 15 14 13 13 14 14
5 5 5 5 5 5 6 6 5 5 5 5 6 6 6 5 7 9 12 14 14 14 14 15 16 17 17 17 18 19 19 20 21 22 22 22 23 23 23 24 24 25 24 24 24 23 23 24 24 25 25 26 26 24 21 19 19 20 20 21 23 24 24 25 24 23 22 21 21 20 20 21 22 21 19 19 20 20 18 17 17 16 16 15 15
6 7 6 6 6 6 5 4 4 4 4 5 6 6 6 5 5 7 9 11 12 13 13 14 15 16 16 17 18 18 18 19 19 20 21 22 23 24 25 26 27 28 28 28 28 27 27 27 28 28 29 30 30 29 27 24 23 22 22 23 24 26 26 27 27 26 26 25 25 25 24 24 24 24 22 21 21 22 22 22 21 20 20 19 17
6 7 7 7 7 7 6 5 5 4 4 5 6 6 7 6 6 7 8 8 9 10 10 12 13 13 13 14 15 16 18 18 19 19 20 21 22 23 24 25 27 29 30 30 31 31 31 31 31 32 32 33 34 34 32 31 28 27 26 26 27 28 29 29 29 28 28 28 28 29 28 27 26 26 26 25 23 22 24 25 25 24 23 22 22
7 8 8 8 7 7 6 5 4 3 3 4 5 5 5 6 6 7 7 8 9 9 9 11 13 13 14 15 17 19 21 22 22 24 25 25 26 26 26 26 26 28 30 31 31 32 34 34 34 34 35 36 37 35 35 35 33 31 32 32 32 32 32 32 32 31 31 30 29 29 29 29 28 28 29 29 27 24 25 27 28 27 26 25 25
9 9 8 7 7 6 5 3 2 1 1 2 3 3 4 4 5 6 7 8 9 9 10 13 14 15 16 18 19 22 24 26 27 28 30 31 31 30 30 29 27 26 28 30 30 31 34 35 35 34 35 37 36 35 36 36 32 31 34 36 36 35 35 34 34 34 34 33 32 31 30 30 29 28 28 28 27 26 27 29 30 30 29 28 27
9 9 8 7 6 5 4 3 2 2 3 3 4 4 4 4 5 6 7 8 9 10 12 14 15 17 19 21 23 25 27 29 30 31 33 34 34 32 31 29 28 27 28 30 30 30 32 34 34 33 34 35 35 35 36 35 33 33 33 35 36 36 35 34 35 34 34 34 34 33 33 32 31 30 28 27 26 26 27 29 31 32 33 32 31
9 8 7 7 6 6 6 6 4 4 4 4 4 4 4 5 6 7 8 9 11 13 15 17 19 21 23 25 27 28 29 31 31 32 33 35 34 33 30 27 26 26 27 28 28 28 29 32 33 33 34 35 34 34 34 36 37 35 33 34 35 35 33 32 32 31 30 31 32 32 34 34 33 32 29 26 26 26 28 29 30 32 35 36 35
10 10 10 10 10 9 7 6 4 4 4 4 4 4 4 5 7 8 9 11 13 15 17 20 21 23 25 26 27 27 27 28 28 28 29 29 28 27 25 22 21 22 25 25 25 25 26 27 27 27 28 30 30 30 31 35 38 37 35 36 37 35 32 30 29 28 28 31 32 32 33 33 33 32 30 28 27 27 27 26 28 31 34 36 36
12 12 11 11 9 8 6 4 4 4 3 3 3 4 5 7 9 10 12 14 16 18 20 22 23 24 25 25 25 25 25 24 24 23 22 21 20 18 18 18 18 19 21 23 23 23 24 24 24 23 25 28 29 31 31 31 34 36 35 32 31 31 30 28 28 30 31 33 34 31 31 33 34 33 30 26 27 28 27 26 27 29 32 33 33
12 11 11 9 7 6 5 4 4 3 3 4 5 7 8 10 12 13 15 17 18 20 20 21 22 22 23 23 22 23 23 23 22 21 20 19 18 18 18 18 18 18 19 21 21 19 18 18 18 18 20 22 24 26 27 26 26 29 28 25 25 25 26 25 26 28 29 31 30 27 26 30 33 34 31 26 25 26 27 28 29 29 30 31 31
12 11 9 7 6 6 5 4 4 4 5 7 8 10 10 12 13 14 16 17 17 18 18 18 19 19 19 20 20 20 20 20 20 20 19 19 19 20 19 19 19 19 18 18 18 17 16 15 13 13 14 16 17 18 19 19 20 21 21 23 25 25 23 22 24 26 27 27 26 23 22 25 28 32 33 31 29 29 29 30 30 30 30 29 28
11 10 8 7 6 5 4 3 3 4 6 8 9 10 11 12 14 14 14 14 15 15 15 16 17 17 18 18 18 18 18 18 18 18 17 17 19 18 16 15 16 16 15 15 15 15 15 13 11 12 13 15 17 17 15 14 15 16 16 18 21 22 21 19 18 19 20 20 20 20 20 23 26 29 30 29 29 30 30 30 31 31 30 29 28
10 9 8 6 5 4 3 3 4 6 7 8 8 9 11 13 14 14 13 13 13 14 14 15 16 16 17 17 17 17 17 17 18 18 16 16 18 18 17 16 15 15 16 17 16 15 13 12 12 12 12 13 14 14 13 11 11 12 13 14 14 16 18 19 18 17 16 17 19 20 20 22 24 26 27 27 29 30 30 30 32 31 30 30 31
8 8 8 7 6 6 6 6 7 8 8 9 10 11 12 13 13 13 12 12 12 13 13 14 14 15 16 16 16 18 18 17 19 19 17 16 16 16 16 16 15 15 16 16 15 15 15 14 14 13 13 14 14 13 13 14 14 14 16 17 17 15 16 19 21 21 18 18 20 20 21 23 24 25 27 28 29 30 31 31 32 33 33 33 34
8 8 9 9 8 8 8 8 8 9 9 10 10 11 12 12 11 11 10 10 11 12 12 13 13 13 15 16 17 18 18 16 17 18 17 16 16 15 14 15 15 15 17 16 14 14 15 15 15 15 16 17 17 15 15 17 19 19 19 21 23 23 22 23 25 24 21 20 22 23 24 25 26 26 26 27 28 29 30 30 31 33 34 35 35
10 11 10 10 9 9 8 7 8 8 9 9 9 10 11 10 9 9 8 9 10 11 12 12 12 13 15 15 15 17 17 15 15 16 15 15 17 17 15 15 16 17 17 17 17 17 17 17 17 18 19 19 17 16 16 16 17 18 17 18 20 22 23 24 26 26 25 25 25 26 27 27 26 26 26 27 27 28 29 29 29 31 33 34 34
11 10 9 8 7 6 6 7 7 7 8 9 8 8 9 8 8 8 8 9 10 10 10 11 11 13 15 15 14 15 16 14 15 15 14 14 17 18 17 15 16 17 17 18 18 18 18 18 18 18 19 19 18 18 18 17 17 17 17 17 18 18 19 20 21 24 26 27 27 28 29 27 24 23 23 24 23 24 24 23 23 24 27 30 31
9 7 4 5 7 6 7 8 8 7 8 7 6 6 7 7 7 8 8 9 9 9 9 11 11 13 16 15 14 15 16 15 15 15 14 14 16 17 17 15 15 16 17 18 19 19 19 19 18 17 16 17 17 17 17 17 17 17 16 17 17 18 18 19 20 22 24 26 27 27 28 27 23 21 22 23 21 20 19 18 18 18 18 22 27
5 4 2 4 7 7 6 7 7 8 7 5 4 5 5 5 6 7 8 9 9 9 10 11 12 13 15 15 14 15 16 16 16 16 15 14 14 15 16 17 17 18 18 18 19 19 19 19 18 17 16 16 16 16 17 17 18 18 18 19 20 20 21 22 23 24 25 25 25 25 25 24 22 21 23 24 22 20 20 19 19 19 18 22 29
Wind_Direction
182 251 248 237 240 245 246 246 245 247 253 257 253 244 229 218 219 238 245 244 250 248 249 262 283 304 325 341 347 355 8 1 354 13 32 24 26 34 33 27 21 20 21 21 22 25 25 22 19 20 19 15 17 14 10 11 7 14 23 7 14 16 358 14 87 86 126 155 122 105 84 69 70 69 66 64 58 53 48 42 46 48 46 36 21
88 232 240 235 241 240 231 231 231 233 240 243 239 240 234 219 222 235 245 252 251 245 250 261 283 299 309 329 343 346 354 2 356 1 9 14 25 34 33 31 24 18 19 19 19 22 24 22 20 19 20 19 18 16 16 18 15 21 34 28 19 21 6 14 112 102 29 208 166 142 138 110 90 72 60 60 56 44 40 39 41 39 33 30 28
86 76 125 222 233 231 223 218 220 227 230 227 229 239 239 232 235 243 256 265 262 255 260 272 289 298 305 318 336 339 337 353 360 359 1 7 19 29 32 35 30 21 21 20 16 18 24 24 21 17 17 21 19 18 22 23 21 24 32 35 32 30 15 12 88 111 58 276 231 220 215 184 143 98 61 52 32 11 17 27 26 21 18 10 7
92 77 81 118 213 229 233 221 216 222 224 221 224 233 237 243 244 248 261 268 268 266 270 283 291 302 317 325 336 341 329 342 355 356 358 1 10 20 27 33 34 22 21 25 15 14 23 26 25 19 16 23 20 18 25 29 29 28 30 34 38 44 27 17 31 59 38 358 290 253 243 232 212 172 10 356 14 11 13 26 22 7 8 7 360
88 84 81 90 134 210 229 224 217 214 214 214 218 224 235 244 240 245 262 265 267 273 277 281 290 308 323 325 332 337 329 336 345 345 350 357 3 6 8 17 27 24 20 24 17 15 21 25 29 23 17 23 23 20 26 30 32 33 33 33 36 49 44 23 23 27 27 22 5 335 286 256 269 332 314 302 305 353 11 8 11 7 4 7 5
116 91 90 98 114 168 206 207 202 199 203 207 212 220 234 242 239 245 260 267 272 276 276 277 284 294 301 304 310 313 313 321 325 329 341 351 357 358 355 355 8 23 25 17 16 19 20 23 31 29 19 21 24 24 26 29 32 34 36 36 34 43 47 34 25 24 22 26 26 21 11 353 352 344 333 325 304 299 345 332 338 354 358 4 7
155 126 110 107 113 134 178 185 182 188 197 202 209 220 234 241 240 245 258 270 279 278 274 276 280 285 291 297 304 307 307 313 320 326 331 339 349 352 351 348 351 9 25 17 14 19 19 23 31 32 24 22 26 27 29 33 33 33 38 41 37 41 51 48 33 27 24 24 26 23 17 7 360 350 340 331 305 289 315 322 320 325 337 354 356
186 160 138 127 122 133 164 182 184 189 193 196 206 220 229 234 237 243 256 267 274 277 275 277 281 288 295 300 303 307 310 313 315 321 323 329 341 345 346 349 347 355 13 19 15 16 19 23 26 31 31 29 30 29 30 36 36 34 40 43 40 40 50 51 38 36 34 25 23 22 19 12 11 14 354 333 309 293 297 304 312 309 308 333 342
203 185 161 140 127 131 148 183 195 195 195 197 206 219 227 232 238 245 256 264 270 276 277 278 282 289 294 300 304 306 312 315 315 320 324 324 332 337 342 347 348 350 360 12 16 11 15 23 24 25 32 34 35 35 35 37 37 39 42 44 42 39 44 48 43 42 41 34 32 27 20 17 13 16 9 357 331 302 298 301 309 308 291 297 325
197 185 176 161 138 119 99 171 205 204 204 208 211 220 232 239 246 254 262 269 274 279 283 283 285 290 293 297 303 305 309 315 318 318 320 323 328 332 337 343 349 350 351 359 8 4 5 19 23 18 26 31 31 39 42 38 36 39 41 42 43 42 42 43 42 41 41 40 41 39 30 28 21 11 7 6 352 322 313 311 313 315 295 286 302
194 184 178 177 166 88 59 91 203 209 210 218 217 218 233 245 253 258 266 272 275 281 287 290 288 291 294 296 298 303 306 312 314 311 311 318 322 324 329 336 343 348 349 348 350 353 357 10 16 14 22 24 24 34 43 42 37 36 40 40 39 42 42 41 41 42 42 36 36 43 42 34 26 12 1 359 354 338 327 322 325 328 311 292 298
211 197 174 169 156 89 81 102 176 205 209 218 219 218 231 248 259 263 268 271 274 281 291 298 299 297 296 297 297 299 303 306 310 309 306 308 311 314 320 325 332 338 343 341 336 342 351 354 1 9 14 16 22 31 39 42 37 32 38 39 36 39 43 42 41 42 43 37 28 30 34 31 22 9 2 358 348 338 332 328 333 335 324 311 311
219 211 170 157 138 113 114 123 149 183 195 210 223 232 244 255 266 269 267 267 271 281 291 300 304 305 303 302 301 300 301 304 306 307 305 305 308 309 310 314 320 325 329 332 328 331 337 335 340 351 354 356 11 26 34 41 41 34 33 36 34 31 38 41 37 38 39 35 30 27 23 19 10 2 2 359 347 341 336 332 335 337 328 320 321
212 193 163 150 134 114 109 122 139 155 169 188 214 239 252 261 270 270 265 263 267 278 287 294 299 303 304 306 305 304 304 305 304 305 304 303 304 305 306 307 310 312 316 321 322 323 322 313 314 321 328 337 343 358 22 28 37 40 26 26 29 17 28 39 32 34 35 28 25 22 20 12 360 355 356 355 349 344 339 337 339 337 330 329 328
181 159 149 140 127 104 96 117 133 141 148 151 155 169 189 247 272 270 265 264 269 278 287 293 296 296 298 301 303 303 304 305 302 301 300 298 298 299 300 300 301 302 304 309 314 316 311 300 300 304 306 319 322 312 333 342 348 16 3 4 19 3 7 21 15 17 18 16 14 11 15 7 351 346 342 344 346 341 338 338 343 340 334 340 345
131 148 148 139 123 101 103 120 128 132 135 135 138 139 137 157 274 289 275 274 277 280 285 291 292 291 293 297 301 302 302 302 298 296 295 295 297 297 298 299 298 299 299 300 304 307 306 296 289 286 288 294 294 289 280 276 296 318 323 336 351 342 350 1 357 357 355 357 1 360 4 354 339 335 329 334 338 334 336 337 341 342 334 334 338
120 142 148 142 126 113 125 129 130 132 133 136 148 159 189 281 312 309 298 293 289 283 283 287 287 288 292 297 305 311 312 308 303 299 295 293 296 298 298 299 298 299 299 298 299 300 299 293 284 275 276 279 274 271 269 265 274 287 293 303 313 315 329 337 337 347 345 344 345 340 346 347 334 324 320 320 316 315 324 329 332 334 328 328 329
124 141 148 150 143 140 149 152 148 152 156 158 174 188 313 316 322 314 307 298 291 287 284 282 281 292 302 309 316 321 323 322 317 309 301 296 297 298 298 299 299 299 298 297 298 298 294 287 281 275 275 279 275 265 261 263 269 276 282 288 293 296 307 316 321 328 328 330 334 329 334 341 325 316 316 307 294 295 312 320 321 319 316 317 319
133 151 157 156 156 160 170 177 179 186 190 190 209 231 321 330 333 324 313 298 292 294 290 284 283 294 305 311 316 320 322 324 323 318 311 304 301 301 302 303 301 299 297 296 296 296 293 284 277 278 279 278 275 268 262 259 263 270 275 280 286 288 293 300 303 306 309 313 320 319 321 322 313 313 315 304 291 286 293 302 302 303 304 302 308
125 149 159 159 160 168 183 190 194 205 214 222 237 249 271 295 313 313 309 305 303 304 298 290 289 294 299 302 306 310 312 314 318 319 315 308 304 305 306 306 305 302 300 299 297 295 293 288 281 278 278 277 273 267 264 260 258 263 269 273 278 282 285 289 290 288 291 296 303 306 305 304 304 308 307 302 298 292 283 281 283 288 293 292 296
130 146 159 166 167 174 191 199 205 215 226 236 245 256 268 278 287 291 295 296 292 292 289 284 285 291 296 299 301 303 305 306 308 312 312 305 299 301 305 306 304 304 301 298 298 297 295 292 286 278 274 276 274 266 261 262 261 259 262 267 271 276 279 282 283 282 283 288 293 296 298 298 294 292 289 287 292 294 289 288 287 285 292 295 290
149 159 164 174 181 188 200 207 215 225 236 246 253 264 275 281 286 288 292 292 286 281 277 273 278 286 291 294 296 298 300 302 301 302 303 299 294 296 299 301 301 299 297 294 293 294 295 293 289 283 276 274 275 269 258 257 261 259 258 263 266 270 275 277 280 284 286 287 289 292 299 301 298 296 290 278 273 280 283 286 287 280 278 283 285
172 179 178 183 194 205 212 218 225 230 240 250 258 270 282 289 292 291 293 294 289 283 277 272 274 281 286 288 291 294 296 296 293 291 292 290 287 287 291 295 296 295 293 293 292 289 290 289 287 284 280 275 274 271 261 254 257 259 258 261 264 267 272 275 277 281 285 285 286 290 295 297 299 303 301 286 273 270 274 277 278 274 269 271 278
180 187 184 183 192 205 212 216 220 224 234 246 255 273 288 296 300 301 303 303 296 289 283 277 277 280 282 285 289 293 295 296 292 284 281 282 280 281 285 288 290 291 290 292 292 289 285 283 282 281 280 277 274 271 265 258 256 258 256 257 261 264 268 272 275 278 279 281 282 285 288 289 292 296 298 293 276 266 265 270 272 269 268 272 274
178 184 183 180 183 197 206 208 211 217 227 241 253 269 284 294 302 306 310 309 300 291 286 282 280 280 281 284 288 289 293 299 297 286 278 278 277 277 280 280 282 285 287 289 292 292 288 281 278 276 275 274 272 268 264 260 258 259 259 257 257 260 263 267 271 274 275 277 278 279 282 284 284 287 291 293 283 268 259 260 264 262 262 268 270
177 184 188 187 190 200 207 210 217 225 237 251 262 272 282 291 300 304 306 311 308 298 291 287 285 283 283 285 287 288 291 295 296 290 284 282 279 277 276 276 275 275 279 286 291 297 299 291 278 271 269 269 267 264 261 257 253 255 258 259 259 260 262 264 267 269 270 273 273 273 275 276 276 278 281 285 286 277 264 258 258 257 256 258 261
184 189 195 199 202 208 214 219 226 235 246 257 264 271 280 286 295 299 300 308 313 307 299 294 291 288 287 287 287 287 289 290 289 288 287 286 284 282 280 276 272 269 270 276 282 286 292 294 285 275 269 266 262 260 260 258 255 252 253 256 259 260 262 264 266 267 266 267 267 267 268 268 267 270 274 278 283 281 270 262 259 258 256 251 252
196 197 201 207 213 216 221 227 232 239 249 258 265 271 276 278 282 288 290 297 304 305 305 301 295 295 295 293 290 286 285 286 285 285 286 287 286 285 283 279 274 270 267 268 271 273 277 280 281 276 269 264 261 259 259 260 259 256 254 255 257 259 261 262 265 266 266 266 266 265 264 263 261 264 268 270 275 279 273 263 258 255 253 250 250
207 208 209 215 220 223 228 231 236 243 250 257 266 272 275 278 278 276 278 286 292 296 301 302 301 302 303 299 293 289 288 287 287 286 286 287 287 286 284 281 277 273 270 267 265 265 267 268 269 270 268 265 263 261 261 262 260 258 259 259 258 258 259 261 262 264 266 266 267 266 264 262 261 264 267 267 268 271 272 266 258 251 249 252 254
211 215 217 221 225 231 237 240 244 252 257 264 271 273 273 274 272 269 270 274 280 285 290 295 297 299 302 299 293 292 293 292 291 291 290 288 286 283 282 280 277 275 271 268 265 262 262 264 263 263 263 264 263 261 262 264 262 260 261 262 263 263 261 262 263 263 265 266 267 268 267 267 264 263 265 265 263 264 267 268 263 252 246 246 251
204 210 216 222 229 238 247 254 261 267 272 276 279 278 274 268 263 261 261 263 267 274 280 285 290 292 294 294 291 292 294 292 291 292 292 290 286 281 280 278 274 273 271 268 267 264 262 264 263 261 259 261 264 264 264 264 263 263 263 263 265 267 266 266 265 265 265 265 265 266 267 270 270 265 265 266 263 260 261 265 266 262 255 248 245
184 192 199 208 218 233 245 254 264 273 282 291 297 302 296 274 257 251 254 259 265 271 278 283 288 291 291 291 292 294 294 293 293 293 291 289 286 281 278 276 274 274 273 269 268 267 265 265 266 264 262 262 266 270 270 267 264 264 265 265 266 267 268 268 267 266 266 264 264 263 262 267 272 271 268 267 266 262 258 259 262 264 266 262 256
165 169 170 178 191 211 228 238 251 267 284 301 313 324 321 289 259 250 253 261 269 276 281 286 292 296 299 300 301 301 300 299 299 297 293 290 286 282 279 278 278 276 274 271 268 267 266 266 265 267 267 266 268 271 272 271 269 267 266 267 267 267 267 268 268 267 264 262 262 260 258 262 270 273 269 264 265 266 264 261 260 260 261 264 266
159 160 161 167 179 190 197 201 221 249 274 297 312 322 324 308 285 274 272 276 284 292 296 299 304 310 313 314 316 316 315 315 312 308 304 298 293 288 284 283 281 279 276 272 270 268 266 266 265 266 268 269 270 272 274 274 273 271 269 269 268 268 267 267 268 267 266 265 265 265 263 262 265 269 269 263 260 261 265 267 265 263 262 263 264
158 160 161 166 175 180 184 194 212 240 267 295 313 321 327 328 322 319 316 314 319 326 326 323 325 330 331 329 328 326 323 323 321 317 314 310 306 302 297 292 286 280 276 275 273 271 269 268 267 266 267 270 271 273 275 275 275 274 273 271 270 269 267 267 268 268 268 268 268 269 270 269 266 265 266 266 263 259 262 266 268 268 267 267 267
169 169 166 171 180 183 193 207 220 246 274 303 320 328 342 349 345 349 354 354 354 357 350 341 339 340 336 331 328 325 322 320 318 316 314 313 311 309 307 303 296 287 281 278 275 272 271 270 269 269 269 269 269 271 273 275 277 278 278 276 274 271 269 269 269 269 268 269 269 269 271 272 271 268 266 267 267 262 259 263 266 267 266 265 267
176 176 175 183 193 196 205 215 224 261 314 3 13 27 39 29 16 17 19 12 4 359 350 343 340 337 332 328 325 322 318 316 314 311 310 308 306 305 304 303 301 297 291 285 278 272 270 270 271 272 271 269 268 269 271 273 274 275 278 280 278 275 272 268 268 269 268 268 268 267 266 268 270 271 270 269 269 263 258 259 261 263 264 263 261
178 180 182 186 187 182 174 153 129 103 79 67 58 58 53 34 23 21 17 8 358 352 344 338 334 329 325 322 320 317 315 313 311 307 303 300 298 297 297 296 298 301 302 299 290 279 271 270 270 272 273 272 270 269 271 274 273 271 274 278 279 277 274 268 266 268 269 272 272 269 266 265 265 266 268 271 272 267 259 257 258 259 262 262 260
165 165 162 154 144 138 132 124 120 107 88 72 53 42 27 14 10 4 358 351 343 340 335 330 328 325 323 322 321 319 317 314 311 308 303 300 298 296 293 292 297 303 306 305 298 289 282 278 275 274 276 277 277 276 275 274 273 273 273 274 277 278 277 274 271 268 268 273 276 274 273 270 267 265 265 267 270 269 264 261 258 257 258 260 260
146 143 137 133 129 131 132 128 122 103 82 65 39 16 356 357 356 344 340 338 335 334 332 330 330 330 329 329 327 325 323 321 319 317 313 309 304 298 293 293 299 304 305 302 300 300 299 296 290 287 284 284 286 287 282 275 275 277 275 272 272 271 271 277 280 276 273 272 272 272 274 273 271 268 266 262 261 263 265 266 263 259 258 259 260
146 140 135 136 136 138 138 124 109 94 72 52 23 356 346 350 347 341 341 342 341 340 339 338 339 338 336 335 333 332 334 334 333 332 329 325 319 311 306 307 308 307 305 303 302 304 306 305 301 297 291 289 289 291 290 286 281 275 271 276 280 272 268 274 278 278 278 276 272 269 268 271 274 273 269 261 257 259 265 269 269 265 263 264 262
146 141 139 143 139 133 125 107 95 78 50 30 7 357 356 355 352 350 351 351 349 348 346 345 345 344 342 341 341 341 343 344 344 344 345 344 341 337 334 332 330 325 319 317 315 313 312 313 310 305 300 298 296 294 296 298 289 274 270 286 296 285 274 273 273 275 278 277 273 268 265 268 274 275 272 267 264 263 263 265 268 268 267 268 265
142 139 137 137 130 121 111 96 78 45 25 10 360 359 360 358 358 359 358 355 353 351 350 347 346 346 346 345 345 346 347 347 347 348 350 350 349 348 347 345 345 344 340 337 333 328 326 327 325 323 322 323 319 309 303 304 301 289 281 283 286 285 282 278 275 275 277 276 274 272 270 270 271 273 275 275 272 268 265 263 264 265 265 267 265
139 136 132 129 125 117 99 73 43 16 6 2 1 3 3 2 3 4 1 357 353 351 349 346 344 343 341 340 341 342 341 340 340 340 342 342 341 343 346 344 345 345 342 340 338 336 337 339 340 341 342 342 341 335 327 317 312 311 302 287 282 286 292 295 291 284 282 285 284 280 276 272 269 272 278 278 274 272 272 270 268 264 262 263 262
137 133 126 119 107 88 63 38 25 16 12 14 14 10 7 7 6 4 2 358 354 351 347 345 344 343 342 342 343 344 345 346 345 343 342 337 333 332 333 333 333 332 329 327 326 327 333 336 337 340 345 347 348 349 346 335 325 330 335 326 310 297 295 303 306 298 293 299 299 292 287 283 280 281 283 280 276 274 273 272 270 266 261 258 256
135 125 109 98 82 66 57 47 39 33 27 23 18 11 10 9 6 4 3 359 356 355 351 350 351 351 352 353 353 353 355 355 354 354 354 349 345 341 338 338 337 336 336 334 329 327 329 328 325 323 322 322 326 328 324 315 312 317 324 326 325 318 310 310 311 305 298 300 301 297 293 292 291 291 289 287 283 280 278 274 272 270 264 257 253
132 116 99 90 82 75 69 58 45 38 32 25 18 12 10 10 8 8 11 7 3 4 5 3 3 2 1 1 360 360 1 358 357 359 359 358 359 357 352 352 353 352 354 354 350 344 342 339 334 330 329 330 331 329 320 310 308 308 306 303 306 309 310 311 315 315 310 303 301 297 294 295 297 296 293 292 289 286 285 283 280 276 270 262 255
122 110 100 89 81 79 74 57 42 34 25 16 12 10 10 15 18 20 23 19 14 15 17 15 13 9 6 5 3 2 2 358 355 358 359 0 5 9 8 6 5 5 5 5 2 359 357 354 351 348 347 346 345 342 337 331 327 324 318 311 309 309 307 304 306 309 305 298 294 292 292 299 304 304 302 301 298 294 291 289 287 284 279 270 261
113 106 102 85 73 71 54 31 23 19 13 9 10 15 20 27 29 27 27 26 23 22 21 17 15 11 9 7 5 3 1 357 354 355 355 354 360 6 11 11 8 4 2 360 358 356 354 351 352 351 349 347 343 339 337 336 333 330 326 323 321 320 316 310 307 307 305 301 297 294 292 295 298 299 300 300 299 297 293 287 284 284 280 274 269
114 109 100 52 40 38 28 24 22 16 16 21 25 29 32 31 27 25 27 27 25 20 14 12 10 8 9 9 5 2 2 359 354 351 349 347 348 350 355 359 359 356 355 353 351 350 347 343 342 342 342 340 337 334 332 330 327 324 321 319 316 315 313 312 310 308 305 303 301 298 293 291 291 292 294 293 289 287 283 276 273 272 268 268 271
122 130 123 41 40 46 42 33 24 17 21 30 33 32 32 28 26 27 27 27 24 15 8 7 4 2 5 7 4 2 3 1 356 352 348 344 342 339 340 343 346 348 352 353 351 350 349 346 343 339 337 334 331 329 326 323 321 318 314 311 310 308 307 307 307 305 304 304 303 300 296 294 293 292 291 288 284 280 277 274 270 266 262 268 275